Kelso, MO

4:18 PM CST on February 07, 2016 (GMT -0600)
Cape Girardeau Regional

Weather History for KCGI - September, 2012

Change the Weather History Date:

Wednesday, September 5, 2012

  Actual Average Record
Temperature  
Mean Temperature 81 °F 73 °F  
Max Temperature 91 °F 85 °F 99 °F (1990)
Min Temperature 70 °F 61 °F 42 °F (1997)
Degree Days  
Heating Degree Days 0 0  
Month to date heating degree days 0 0  
Since 1 July heating degree days 0 1  
Cooling Degree Days 16 8  
Month to date cooling degree days 71 44  
Year to date cooling degree days 1687 1304  
Growing Degree Days 30 (Base 50)    
Moisture  
Dew Point 71 °F    
Average Humidity 78    
Maximum Humidity 93    
Minimum Humidity 63    
Precipitation  
Precipitation 0.23 in 0.11 in 2.27 in (1975)
Month to date precipitation 1.74 0.55  
Year to date precipitation 16.92 31.60  
Sea Level Pressure  
Sea Level Pressure 29.84 in    
Wind  
Wind Speed 6 mph (ESE)    
Max Wind Speed 21 mph    
Max Gust Speed 31 mph    
Visibility 9 miles    
Events Rain , Thunderstorm    
T = Trace of Precipitation, MM = Missing Value Source: NWS Daily Summary

Daily Weather History Graph

Daily Weather History Graph

Search for Another Location

Airport or City:

Trip Planner

Search our weather history database for the weather conditions in past years. The results will help you decide how hot, cold, wet, or windy it might be!

Date:

Astronomy

Sep. 05, 2012 Rise Set
Actual Time 6:32 AM CDT 7:20 PM CDT
Civil Twilight 6:06 AM CDT 7:46 PM CDT
Nautical Twilight 5:34 AM CDT 8:17 PM CDT
Astronomical Twilight 5:02 AM CDT 8:50 PM CDT
Moon 9:58 PM CDT (9/5) 11:28 AM CDT (9/5)
Length of Visible Light 13h 40m
Length of Day
12h 47m
Waning Gibbous, 76% of the Moon is Illuminated
Sep 5
Waning Gibbous
Sep 8
Last Quarter
Sep 15
New
Sep 22
First Quarter
Sep 29
Full

Hourly Weather History & Observations

Time (CDT) Temp. Heat Index Dew Point Humidity Pressure Visibility Wind Dir Wind Speed Gust Speed Precip Events Conditions
12:53 AM 75.9 °F - 72.0 °F 87% 29.83 in 10.0 mi ESE 3.5 mph - N/A   Clear
1:53 AM 75.9 °F - 72.0 °F 87% 29.83 in 10.0 mi South 4.6 mph - N/A   Clear
2:53 AM 75.9 °F - 72.0 °F 87% 29.83 in 10.0 mi SSE 4.6 mph - N/A   Clear
3:53 AM 75.0 °F - 72.0 °F 90% 29.84 in 9.0 mi Calm Calm - N/A   Clear
4:53 AM 73.9 °F - 71.1 °F 91% 29.83 in 9.0 mi Calm Calm - N/A   Clear
5:31 AM 75.2 °F - 71.6 °F 89% 29.84 in 10.0 mi Calm Calm - N/A Thunderstorm Mostly Cloudy
5:53 AM 77.0 °F - 72.0 °F 84% 29.87 in 9.0 mi North 17.3 mph 31.1 mph N/A Thunderstorm Thunderstorm
6:02 AM 73.4 °F - 68.0 °F 83% 29.89 in 10.0 mi NNE 18.4 mph 24.2 mph N/A Thunderstorm Thunderstorm
6:16 AM 73.4 °F - 68.0 °F 83% 29.89 in 6.0 mi NE 15.0 mph - 0.06 in Rain , Thunderstorm Light Thunderstorms and Rain
6:22 AM 71.6 °F - 69.8 °F 94% 29.87 in 1.8 mi East 11.5 mph - 0.22 in Rain , Thunderstorm Heavy Thunderstorms and Rain
6:30 AM 73.4 °F - 66.2 °F 78% 29.86 in 3.0 mi ESE 13.8 mph - 0.22 in Rain , Thunderstorm Light Thunderstorms and Rain
6:40 AM 73.4 °F - 66.2 °F 78% 29.85 in 10.0 mi ESE 9.2 mph - 0.22 in Thunderstorm Thunderstorm
6:53 AM 72.0 °F - 66.9 °F 84% 29.84 in 10.0 mi SE 5.8 mph - 0.22 in   Mostly Cloudy
7:53 AM 72.0 °F - 69.1 °F 91% 29.84 in 10.0 mi SE 6.9 mph - N/A   Mostly Cloudy
8:53 AM 78.1 °F - 70.0 °F 76% 29.85 in 10.0 mi SW 3.5 mph - N/A   Mostly Cloudy
9:53 AM 78.1 °F - 70.0 °F 76% 29.85 in 10.0 mi SSE 3.5 mph - N/A   Scattered Clouds
10:53 AM 84.9 °F 93.3 °F 75.0 °F 72% 29.82 in 10.0 mi South 8.1 mph - 0.01 in   Clear
11:53 AM 86.0 °F 93.8 °F 73.9 °F 67% 29.83 in 10.0 mi SSE 9.2 mph - N/A   Scattered Clouds
12:53 PM 88.0 °F 96.5 °F 73.9 °F 63% 29.83 in 10.0 mi Calm Calm - N/A   Partly Cloudy
1:53 PM 90.0 °F 100.2 °F 75.0 °F 61% 29.82 in 10.0 mi ESE 3.5 mph - N/A   Mostly Cloudy
2:53 PM 90.0 °F 101.3 °F 75.9 °F 63% 29.81 in 10.0 mi ENE 17.3 mph - N/A   Clear
3:53 PM 84.9 °F 92.1 °F 73.9 °F 69% 29.79 in 10.0 mi NE 12.7 mph - N/A   Partly Cloudy
4:53 PM 84.9 °F 90.7 °F 72.0 °F 65% 29.77 in 10.0 mi NE 12.7 mph - N/A   Clear
5:53 PM 84.0 °F 90.2 °F 73.0 °F 69% 29.79 in 10.0 mi ESE 6.9 mph - N/A   Clear
6:53 PM 82.0 °F 87.4 °F 73.0 °F 74% 29.83 in 10.0 mi SSE 5.8 mph - N/A   Partly Cloudy
7:53 PM 78.1 °F - 72.0 °F 81% 29.83 in 10.0 mi SSE 5.8 mph - N/A   Clear
8:53 PM 75.9 °F - 72.0 °F 87% 29.84 in 10.0 mi ENE 4.6 mph - N/A   Clear
10:53 PM 73.0 °F - 70.0 °F 90% 29.86 in 10.0 mi Calm Calm - N/A   Clear
11:53 PM 73.0 °F - 71.1 °F 93% 29.87 in 10.0 mi Calm Calm - N/A   Clear